Probability
0 0 0 0 0 0 0 0 0 0 0 0 0 0 0 0 0 0 0 0 0 0 0 0 0 0 0 0 0 0 0 0 0 0 0 0 0 0 0 0 0 0 0 0 0 0 0 0 0
0 0 0 0 0 0 0 0 0 0 0 0 0 0 0 0 0 0 0 0 0 0 0 0 0 0 0 0 0 0 0 0 0 0 0 0 0 0 0 0 0 0 0 0 0 0 0 0 0
0 0 0 0 0 0 0 0 0 0 0 0 0 0 0 0 0 0 0 0 0 0 0 0 0 0 0 0 0 0 0 0 0 0 0 0 0 0 0 0 0 0 0 0 0 0 0 0 0
0 0 0 0 0 0 0 0 0 0 0 0 0 0 0 0 0 0 0 0 0 0 0 0 0 0 0 0 0 0 0 0 0 0 0 0 0 0 0 0 0 0 0 0 0 0 0 0 0
0 0 0 0 0 0 0 0 0 0 0 0 0 0 0 0 0 0 0 0 0 0 0 0 0 0 0 0 0 0 0 0 0 0 0 0 0 0 0 0 0 0 0 0 0 0 0 0 0
0 0 0 0 0 0 0 0 0 0 0 0 0 0 0 0 0 0 0 0 0 0 0 0 0 0 0 0 0 0 0 0 0 0 0 0 0 0 0 0 0 0 0 0 0 0 0 0 0
0 0 0 0 0 0 0 0 0 0 0 0 0 0 0 0 0 0 0 0 0 0 0 0 0 0 0 0 0 0 0 0 0 0 0 0 0 0 0 0 0 0 0 0 0 0 0 0 0
0 0 0 0 0 0 0 0 0 0 0 0 0 0 0 0 0 0 0 0 0 0 0 0 0 0 0 0 0 0 0 0 0 0 0 0 0 0 0 0 0 0 0 0 0 0 0 0 0
0 0 0 0 0 0 0 0 0 0 0 0 0 0 0 0 0 0 0 0 0 0 0 0 0 0 0 0 0 0 0 0 0 0 0 0 0 0 0 0 0 0 0 0 0 0 0 0 0
0 0 0 0 0 0 0 0 0 0 0 0 0 0 0 0 0 0 0 0 0 0 0 0 0 0 0 0 0 0 0 0 0 0 0 0 0 0 0 0 0 0 0 0 0 0 0 0 0
0 0 0 0 0 0 0 0 0 0 0 0 0 0 0 0 0 0 0 0 0 0 0 0 0 0 0 0 0 0 0 0 0 0 0 0 0 0 0 0 0 0 0 0 0 0 0 0 0
0 0 0 0 0 0 0 0 0 0 0 0 0 0 0 0 0 0 0 0 0 0 0 0 0 0 0 0 0 0 0 0 0 0 0 0 0 0 0 0 0 0 0 0 0 0 0 0 0
0 0 0 0 0 0 0 0 0 0 0 0 0 0 0 0 0 0 0 0 0 0 0 0 0 0 0 0 0 0 0 0 0 0 0 0 0 0 0 0 0 0 0 0 0 0 0 0 0
0 0 0 0 0 0 0 0 0 0 0 0 0 0 0 0 0 0 0 0 0 0 0 0 0 0 0 0 0 0 0 0 0 0 0 0 0 0 0 0 0 0 0 0 0 0 0 0 0
0 0 0 0 0 0 0 0 0 0 0 0 0 0 0 0 0 0 0 0 0 0 0 0 0 0 0 0 0 0 0 0 0 0 0 0 0 0 0 0 0 0 0 0 0 0 0 0 0
0 0 0 0 0 0 0 0 0 0 0 0 0 0 0 0 0 0 0 0 0 0 0 0 0 0 0 0 0 0 0 0 0 0 0 0 0 0 0 0 0 0 0 0 0 0 0 0 0
0 0 0 0 0 0 0 0 0 0 0 0 0 0 0 0 0 0 0 0 0 0 0 0 0 0 0 0 0 0 0 0 0 0 0 0 0 0 0 0 0 0 0 0 0 0 0 0 0
0 0 0 0 0 0 0 0 0 0 0 0 0 0 0 0 0 0 0 0 0 0 0 0 0 0 0 0 0 0 0 0 0 0 0 0 0 0 0 0 0 0 0 0 0 0 0 0 0
0 0 0 0 0 0 0 0 0 0 0 0 0 0 0 0 0 0 0 0 0 0 0 0 0 0 0 0 0 0 0 0 0 0 0 0 0 0 0 0 0 0 0 0 0 0 0 0 0
0 0 0 0 0 0 0 0 0 0 0 0 0 0 0 0 0 0 0 0 0 0 0 0 0 0 0 0 0 0 0 0 0 0 0 0 0 0 0 0 0 0 0 0 0 0 0 0 0
0 0 0 0 0 0 0 0 0 0 0 0 0 0 0 0 0 0 0 0 0 0 0 0 0 0 0 0 0 0 0 0 0 0 0 0 0 0 0 0 0 0 0 0 0 0 0 0 0
0 0 0 0 0 0 0 0 0 0 0 0 0 0 0 0 0 0 0 0 0 0 0 0 0 0 0 0 0 0 0 0 0 0 0 0 0 0 0 0 0 0 0 0 0 0 0 0 0
0 0 0 0 0 0 0 0 0 0 0 0 0 0 0 0 0 0 0 0 0 0 0 0 0 0 0 0 0 0 0 0 0 0 0 0 0 0 0 0 0 0 0 0 0 0 0 0 0
0 0 0 0 0 0 0 0 0 0 0 0 0 0 0 0 0 0 0 0 0 0 0 0 0 0 0 0 0 0 0 0 0 0 0 0 0 0 0 0 0 0 0 0 0 0 0 0 0
0 0 0 0 0 0 0 0 0 0 0 0 0 0 0 0 0 0 0 0 0 0 0 0 0 0 0 0 0 0 0 0 0 0 0 0 0 0 0 0 0 0 0 0 0 0 0 0 0
0 0 0 0 0 0 0 0 0 0 0 0 0 0 0 0 0 0 0 0 0 0 0 0 0 0 0 0 0 0 0 0 0 0 0 0 0 0 0 0 0 0 0 0 0 0 0 0 0
0 0 0 0 0 0 0 0 0 0 0 0 0 0 0 0 0 0 0 0 0 0 0 0 0 0 0 0 0 0 0 0 0 0 0 0 0 0 0 0 0 0 0 0 0 0 0 0 0
0 0 0 0 0 0 0 0 0 0 0 0 0 0 0 0 0 0 0 0 0 0 0 0 0 0 0 0 0 0 0 0 0 0 0 0 0 0 0 0 0 0 0 0 0 0 0 0 0
0 0 0 0 0 0 0 0 0 0 0 0 0 0 0 0 0 0 0 0 0 0 0 0 0 0 0 0 0 0 0 0 0 0 0 0 0 0 0 0 0 0 0 0 0 0 0 0 0
0 0 0 0 0 0 0 0 0 0 0 0 0 0 0 0 0 0 0 0 0 0 0 0 0 0 0 0 0 0 0 0 0 0 0 0 0 0 0 0 0 0 0 0 0 0 0 0 0
Wind_Speed
8 5 3 5 8 8 4 1 3 1 4 3 5 10 9 6 4 5 3 1 8 7 7 9 12 13 13 13 13 12 12 13 14 15 16 16 17 17 17 16 16 16 16 16 16 16 16 16 16
4 3 6 7 8 5 1 2 4 3 6 6 6 7 7 5 3 3 1 2 8 8 6 8 11 12 13 12 12 12 12 13 13 15 15 16 16 16 16 16 16 16 16 16 16 16 16 16 16
3 3 6 6 5 6 5 5 6 3 4 5 5 5 5 3 1 1 1 5 6 6 6 8 11 12 12 12 12 12 12 12 13 14 15 16 16 15 15 15 15 15 16 16 16 16 16 16 17
4 6 7 7 5 4 9 8 6 5 4 6 6 5 3 3 2 1 2 6 7 5 5 7 10 11 12 11 11 11 11 12 12 13 14 15 15 15 14 15 15 15 16 16 16 16 16 16 18
5 6 7 4 3 2 4 5 6 5 3 3 5 6 3 3 3 4 6 6 7 5 4 5 9 9 10 10 11 10 10 11 11 12 13 14 14 14 14 14 14 15 16 16 16 16 16 17 18
6 6 6 2 3 3 3 5 5 5 5 4 5 6 3 1 2 4 6 7 6 5 4 4 6 7 8 9 9 9 9 9 10 12 13 13 14 14 14 13 14 14 15 16 16 16 16 16 17
6 5 4 5 5 3 3 5 7 6 5 3 7 7 2 2 2 4 6 7 7 6 5 4 3 3 5 8 8 8 9 9 9 10 11 11 12 12 12 12 13 13 14 14 15 15 15 15 16
5 6 4 3 5 4 3 3 4 6 5 3 3 9 7 5 4 6 7 7 6 6 5 4 3 2 1 3 7 8 8 8 9 9 10 10 11 10 10 9 11 12 12 12 12 13 14 14 15
5 7 2 2 6 5 4 4 3 4 7 4 3 3 4 6 7 6 5 4 4 5 5 4 4 3 1 1 4 6 7 7 8 8 10 9 6 6 6 7 9 10 10 11 11 11 12 12 13
6 5 2 2 3 5 5 5 7 5 4 3 2 2 4 5 7 7 5 4 2 2 3 4 4 3 2 0 2 2 2 3 3 4 5 4 5 4 6 8 9 9 8 9 10 11 10 8 5
3 5 3 1 0 4 4 5 5 9 4 7 9 9 5 6 7 7 5 4 2 0 2 4 4 3 1 1 2 2 2 3 3 3 4 5 5 4 4 3 4 5 6 5 6 6 5 5 4
3 1 2 1 1 2 4 5 3 4 4 3 8 9 7 8 8 7 6 4 2 1 2 4 3 1 1 3 4 4 4 3 3 4 5 5 5 5 4 4 4 3 3 4 4 3 5 6 6
2 2 2 2 2 2 3 3 4 4 2 5 8 8 8 8 6 5 6 5 3 2 1 3 1 2 4 5 5 6 5 5 5 4 5 6 6 6 6 4 4 4 4 4 4 4 6 6 6
1 1 1 2 2 2 3 1 3 6 5 6 8 8 7 8 7 6 6 5 4 2 1 2 3 4 6 7 7 6 5 5 6 6 6 7 7 7 7 6 5 5 4 4 5 5 5 5 5
2 1 2 3 4 3 3 4 7 6 8 8 8 7 7 7 7 7 6 6 5 4 2 3 4 6 8 9 8 6 6 6 6 6 7 8 8 8 7 6 6 4 4 5 5 6 5 5 6
3 2 3 5 4 3 6 9 7 7 11 10 8 8 8 7 7 7 7 6 5 5 4 4 5 7 8 9 8 7 7 7 6 6 7 9 9 9 8 7 6 5 5 5 5 4 5 5 5
1 2 5 6 4 4 6 9 4 6 9 9 9 9 9 8 8 7 7 7 6 6 6 6 6 8 9 10 8 8 7 7 6 6 6 7 9 8 8 7 5 5 6 5 5 5 4 5 5
6 6 5 5 3 5 6 11 5 6 8 10 9 10 10 12 12 8 8 7 7 6 7 7 8 9 10 9 9 8 8 6 6 5 6 8 8 8 9 7 6 6 6 5 5 7 6 5 4
6 6 5 6 4 7 10 13 11 7 8 10 11 13 15 15 8 9 8 8 8 8 8 9 10 10 9 8 6 7 6 5 6 5 7 7 8 8 8 8 7 6 6 5 5 5 8 7 3
4 5 7 6 3 6 7 12 12 7 10 13 15 18 19 13 10 12 11 10 10 10 10 10 11 11 9 5 5 5 6 5 5 5 6 7 7 7 8 9 7 6 7 8 7 5 4 5 5
7 9 9 7 3 2 4 9 9 10 8 9 12 14 14 18 20 17 15 13 12 12 12 11 12 11 9 9 9 10 7 5 4 5 5 5 7 7 8 8 8 7 7 7 6 5 6 5 5
9 8 8 6 3 6 4 8 8 8 9 12 16 14 16 16 18 17 17 16 14 12 10 11 10 10 11 12 13 15 9 7 5 4 5 6 6 7 8 8 8 8 6 7 6 5 4 5 4
9 4 5 4 5 5 4 8 9 5 9 13 17 19 19 17 19 20 19 17 12 11 11 10 10 11 12 11 11 12 10 8 8 6 8 7 6 6 7 8 7 7 6 7 7 6 6 4 4
6 6 6 5 2 7 10 11 11 9 12 12 15 17 17 15 17 16 13 12 11 10 11 11 12 11 12 11 10 12 16 15 14 11 9 7 5 5 6 7 7 7 6 6 6 6 8 6 6
6 7 2 3 3 11 6 10 13 12 12 14 16 14 11 12 15 16 18 18 16 15 14 13 14 13 13 13 11 11 15 18 18 15 12 10 7 5 6 6 6 6 6 6 6 7 6 5 6
10 13 11 9 9 8 4 13 12 9 8 9 10 10 6 11 15 18 20 19 18 17 15 15 15 14 14 14 12 10 11 11 10 10 11 10 7 6 7 7 7 7 6 7 6 6 5 5 5
9 9 8 5 2 5 10 10 10 5 8 11 12 8 8 12 15 17 17 17 17 17 17 16 16 14 15 14 13 12 11 9 10 10 8 7 7 7 8 8 7 7 7 7 6 5 5 5 4
9 9 6 7 6 9 10 10 9 9 13 13 11 12 11 10 12 14 15 16 15 14 12 13 14 15 14 14 14 13 11 10 11 11 11 10 9 9 10 8 8 7 7 7 6 5 5 5 3
10 8 8 7 7 7 10 13 10 13 12 12 14 14 10 12 14 14 13 12 12 11 12 13 13 13 13 14 13 13 12 10 11 11 11 11 9 10 10 10 9 8 7 6 6 5 5 5 4
7 10 11 10 9 8 11 14 6 9 8 9 11 9 7 10 11 11 11 12 12 13 14 14 14 14 14 13 13 14 13 12 12 12 11 11 11 10 10 9 9 8 7 7 7 6 6 5 5
Wind_Direction
329 332 65 57 55 54 69 65 166 96 63 53 88 99 101 85 120 151 253 124 132 133 129 118 114 112 111 110 109 107 104 102 101 100 97 93 88 83 78 73 68 63 60 59 57 55 53 50 46
327 359 52 58 80 83 62 232 127 116 139 133 76 74 77 78 82 105 35 131 130 130 125 123 120 119 117 115 113 111 109 106 106 106 103 99 94 88 83 77 72 67 63 61 60 57 55 52 50
335 51 75 69 94 147 168 212 155 135 121 110 76 59 81 77 52 75 2 145 126 122 117 126 127 125 123 121 119 117 115 113 111 111 110 105 100 95 89 83 76 71 66 64 62 60 58 56 54
59 45 53 69 86 179 171 197 172 126 87 78 103 74 67 19 0 29 54 125 118 114 117 128 127 129 130 129 129 126 123 120 117 116 117 112 108 103 96 89 81 74 70 67 65 63 61 60 59
61 72 62 64 78 117 180 188 155 131 100 82 100 102 92 7 24 53 68 93 107 101 102 124 126 131 135 139 138 136 133 129 126 125 124 122 117 112 105 97 89 81 75 72 69 67 66 65 63
56 65 81 128 143 155 179 165 134 120 111 105 101 114 145 329 55 65 74 72 81 90 83 98 122 136 145 148 148 147 143 140 136 135 133 132 128 123 116 107 97 89 83 79 74 71 70 69 68
95 94 131 162 160 180 195 129 132 138 114 110 125 120 167 244 120 105 84 76 67 65 63 58 79 125 146 157 159 158 154 151 147 142 138 138 136 130 124 116 106 97 90 85 79 75 72 69 68
113 99 94 147 165 198 206 97 122 135 119 58 96 144 187 202 143 107 81 70 64 56 47 36 35 52 113 154 167 165 162 160 155 149 144 143 140 135 132 124 114 105 97 89 83 77 72 68 67
81 76 95 176 186 202 203 125 106 94 97 57 42 152 178 148 126 103 80 60 53 44 29 20 15 18 31 167 170 165 163 166 160 155 150 142 137 134 129 122 115 108 97 88 82 78 72 65 60
77 114 177 194 205 197 186 150 151 114 94 88 58 79 89 115 129 126 123 117 91 41 4 6 357 344 338 74 132 132 131 132 134 141 148 138 134 127 117 109 103 95 83 76 76 75 68 64 51
93 154 188 182 281 163 150 150 146 129 169 188 180 173 142 122 128 135 135 133 131 39 346 337 333 326 330 95 105 100 91 86 85 109 136 127 119 113 103 97 88 80 72 63 61 58 55 57 57
95 135 142 150 24 100 141 146 126 157 186 165 156 151 142 143 148 153 152 147 144 106 350 333 322 321 103 105 97 95 91 84 80 82 108 119 114 107 101 91 82 74 71 71 61 59 56 56 56
100 171 139 144 98 99 103 132 152 165 142 115 121 135 151 154 154 153 147 146 140 114 9 337 336 133 120 106 99 94 90 86 81 76 85 107 113 109 99 88 76 68 66 70 66 61 57 53 51
136 160 180 190 177 175 158 156 151 201 173 143 145 159 168 170 166 159 160 158 154 142 92 29 71 111 113 105 101 96 92 89 82 78 82 95 105 107 100 89 76 67 65 69 70 67 64 57 57
101 53 307 242 204 209 136 260 233 181 163 173 179 180 183 186 181 181 180 172 166 159 137 103 98 105 108 105 101 97 91 90 86 84 82 90 98 103 102 95 83 72 70 72 69 63 60 59 60
62 49 278 269 195 179 155 247 247 156 166 189 194 195 195 196 194 188 180 174 171 160 146 125 118 112 109 107 103 98 92 90 88 88 89 91 96 102 100 95 86 77 73 69 68 57 63 55 60
21 230 242 282 195 168 184 242 250 165 182 198 202 205 204 204 203 197 184 180 175 165 152 137 129 122 114 107 101 95 90 86 86 86 90 92 94 96 99 94 87 81 74 64 70 59 68 65 70
214 217 236 249 216 167 214 249 247 188 203 215 213 212 212 211 206 193 185 182 175 166 158 147 138 133 125 114 106 97 85 79 76 79 88 94 95 96 98 94 84 81 81 69 68 75 64 64 74
179 189 225 252 225 183 222 247 257 197 217 231 225 218 219 218 197 184 185 180 174 170 165 160 152 150 142 135 127 116 104 96 85 76 80 87 91 93 97 98 86 80 81 73 72 81 68 50 33
224 245 262 279 248 199 242 258 260 217 213 222 222 220 219 206 188 191 188 184 182 179 175 171 165 163 161 143 128 119 118 101 87 83 75 76 87 94 100 99 95 87 85 69 56 69 81 52 28
228 225 237 248 304 271 293 287 255 247 226 236 232 226 218 204 197 191 190 189 185 185 181 176 171 167 153 138 126 118 107 99 88 89 79 70 82 86 97 98 97 87 86 84 69 70 91 94 45
237 220 215 225 224 260 215 271 256 243 243 241 240 232 224 210 197 190 189 189 190 186 178 174 169 160 151 150 149 146 144 140 139 132 111 91 84 91 94 96 96 93 91 89 80 71 81 101 88
213 194 188 206 212 258 226 254 265 236 248 249 242 235 228 211 196 192 190 188 182 176 174 170 161 158 158 161 159 146 135 128 130 122 113 104 91 89 94 98 100 98 94 93 91 82 76 78 93
137 78 56 46 89 256 218 225 259 206 217 235 242 237 227 207 195 190 181 172 172 171 170 167 163 163 163 161 161 151 144 143 143 142 134 125 114 102 101 102 101 102 102 101 99 93 88 86 86
137 114 34 305 261 246 213 226 248 219 218 224 241 247 226 198 185 180 177 178 177 176 174 171 168 167 167 163 162 160 155 153 154 153 149 145 140 135 131 120 115 111 110 108 104 98 94 94 96
184 163 176 206 230 262 244 236 250 241 250 258 261 266 232 191 185 186 185 182 179 178 175 174 174 170 169 167 164 161 158 156 155 155 153 152 150 145 141 132 125 123 121 116 109 103 102 102 104
170 208 182 170 252 270 255 263 289 256 265 259 259 263 229 196 190 188 184 182 179 179 179 177 174 171 172 168 163 164 164 160 156 152 148 147 145 144 142 137 132 130 126 123 119 114 116 117 113
159 154 132 175 215 251 261 245 236 216 229 237 244 243 229 198 189 186 184 183 182 179 174 173 175 174 171 168 168 169 168 162 158 155 156 155 152 147 148 144 141 138 133 130 125 125 132 129 131
159 173 179 176 184 198 264 255 211 204 214 223 236 238 220 194 191 188 186 181 177 172 173 176 176 171 171 172 169 165 167 163 160 162 163 160 155 155 156 155 151 147 144 142 140 144 148 148 154
195 184 168 179 214 211 249 261 193 201 222 226 242 243 206 191 187 182 177 174 178 181 181 182 181 178 176 172 169 168 167 165 166 167 166 162 160 162 160 157 155 154 155 156 158 162 168 172 181